| time (UTC) | temp F | wind direction | speed MPH | gust MPH | rain 1hr in | rain 24hr in | rain mn in | humidity % | barometer mb |
| 20260508102458 | 71 | 0 | 0.0 | 0.0 | 0.00 | 0.00 | 0.00 | ||
| 20260508102021 | 71 | 0 | 0.0 | 1.0 | 0.00 | 0.00 | 0.00 | ||
| 20260508101512 | 72 | 0 | 0.0 | 1.0 | 0.00 | 0.00 | 0.00 | ||
| 20260508101012 | 72 | 0 | 0.0 | 1.0 | 0.00 | 0.00 | 0.00 | ||
| 20260508100458 | 72 | 0 | 0.0 | 1.0 | 0.00 | 0.00 | 0.00 | ||
| 20260508100000 | 72 | 0 | 0.0 | 1.0 | 0.00 | 0.00 | 0.00 | ||
| 20260508095501 | 73 | 0 | 0.0 | 3.0 | 0.00 | 0.00 | 0.00 | ||
| 20260508095022 | 73 | 0 | 0.0 | 3.0 | 0.00 | 0.00 | 0.00 | ||
| 20260508094515 | 73 | 0 | 1.0 | 3.0 | 0.00 | 0.00 | 0.00 | ||
| 20260508094014 | 73 | 0 | 0.0 | 3.0 | 0.00 | 0.00 | 0.00 | ||
| 20260508093514 | 73 | 0 | 0.0 | 6.0 | 0.00 | 0.00 | 0.00 | ||
| 20260508093014 | 73 | 0 | 4.0 | 6.0 | 0.00 | 0.00 | 0.00 | ||
| 20260508092516 | 73 | 0 | 1.0 | 9.0 | 0.00 | 0.00 | 0.00 | ||
| 20260508091511 | 72 | 0 | 1.0 | 6.0 | 0.00 | 0.00 | 0.00 | ||
| 20260508091010 | 72 | 0 | 1.0 | 3.0 | 0.00 | 0.00 | 0.00 | ||
| 20260508090015 | 73 | 0 | 0.0 | 0.0 | 0.00 | 0.00 | 0.00 | ||
| 20260508085518 | 73 | 0 | 0.0 | 0.0 | 0.00 | 0.00 | 0.00 | ||
| 20260508085003 | 73 | 0 | 0.0 | 1.0 | 0.00 | 0.00 | 0.00 | ||
| 20260508084015 | 74 | 0 | 0.0 | 3.0 | 0.00 | 0.00 | 0.00 | ||
| 20260508083516 | 74 | 0 | 0.0 | 6.0 | 0.00 | 0.00 | 0.00 | ||
| 20260508083018 | 74 | 0 | 2.0 | 8.0 | 0.00 | 0.00 | 0.00 | ||
| 20260508082500 | 74 | 0 | 1.0 | 8.0 | 0.00 | 0.00 | 0.00 | ||
| 20260508081514 | 74 | 0 | 3.0 | 8.0 | 0.00 | 0.00 | 0.00 | ||
| 20260508081015 | 73 | 6 | 4.0 | 6.0 | 0.00 | 0.00 | 0.00 | ||
| 20260508075500 | 73 | 0 | 0.0 | 0.0 | 0.00 | 0.00 | 0.00 | ||
| 20260508074959 | 74 | 0 | 0.0 | 0.0 | 0.00 | 0.00 | 0.00 | ||
| 20260508074521 | 74 | 0 | 0.0 | 0.0 | 0.00 | 0.00 | 0.00 | ||
| 20260508074014 | 74 | 0 | 0.0 | 0.0 | 0.00 | 0.00 | 0.00 | ||
| 20260508073018 | 75 | 0 | 0.0 | 1.0 | 0.00 | 0.00 | 0.00 | ||
| 20260508072458 | 75 | 0 | 0.0 | 1.0 | 0.00 | 0.00 | 0.00 | ||
| 20260508072005 | 75 | 0 | 0.0 | 1.0 | 0.00 | 0.00 | 0.00 | ||
| 20260508071528 | 76 | 0 | 0.0 | 2.0 | 0.00 | 0.00 | 0.00 | ||
| 20260508071017 | 76 | 0 | 0.0 | 2.0 | 0.00 | 0.00 | 0.00 | ||
| 20260508070514 | 76 | 0 | 0.0 | 2.0 | 0.00 | 0.00 | 0.00 | ||
| 20260508070019 | 76 | 311 | 0.0 | 3.0 | 0.00 | 0.00 | 0.00 | ||
| 20260508065459 | 76 | 0 | 0.0 | 1.0 | 0.00 | 0.00 | 0.00 | ||
| 20260508065021 | 76 | 344 | 0.0 | 1.0 | 0.00 | 0.00 | 0.00 | ||
| 20260508063959 | 77 | 0 | 0.0 | 2.0 | 0.00 | 0.00 | 0.00 | ||
| 20260508063003 | 77 | 329 | 0.0 | 1.0 | 0.00 | 0.00 | 0.00 | ||
| 20260508062504 | 77 | 340 | 0.0 | 1.0 | 0.00 | 0.00 | 0.00 | ||
| 20260508062029 | 77 | 305 | 0.0 | 1.0 | 0.00 | 0.00 | 0.00 | ||
| 20260508061500 | 77 | 309 | 0.0 | 1.0 | 0.00 | 0.00 | 0.00 | ||
| 20260508061020 | 77 | 154 | 0.0 | 1.0 | 0.00 | 0.00 | 0.00 | ||
| 20260508060518 | 77 | 151 | 0.0 | 1.0 | 0.00 | 0.00 | 0.00 | ||
| 20260508060002 | 78 | 295 | 0.0 | 1.0 | 0.00 | 0.00 | 0.00 | ||
| 20260508055504 | 78 | 253 | 0.0 | 0.0 | 0.00 | 0.00 | 0.00 | ||
| 20260508055004 | 78 | 0 | 0.0 | 0.0 | 0.00 | 0.00 | 0.00 | ||
| 20260508054526 | 78 | 0 | 0.0 | 0.0 | 0.00 | 0.00 | 0.00 | ||
| 20260508053501 | 79 | 0 | 0.0 | 1.0 | 0.00 | 0.00 | 0.00 | ||
| 20260508053004 | 79 | 0 | 0.0 | 2.0 | 0.00 | 0.00 | 0.00 | ||
| 20260508052504 | 80 | 0 | 0.0 | 2.0 | 0.00 | 0.00 | 0.00 | ||
| 20260508052026 | 80 | 0 | 0.0 | 2.0 | 0.00 | 0.00 | 0.00 | ||
| 20260508051459 | 80 | 0 | 0.0 | 1.0 | 0.00 | 0.00 | 0.00 | ||
| 20260508051018 | 80 | 327 | 0.0 | 2.0 | 0.00 | 0.00 | 0.00 | ||
| 20260508050500 | 81 | 199 | 0.0 | 3.0 | 0.00 | 0.00 | 0.00 | ||
| 20260508045959 | 81 | 87 | 1.0 | 3.0 | 0.00 | 0.00 | 0.00 | ||
| 20260508045500 | 81 | 0 | 0.0 | 2.0 | 0.00 | 0.00 | 0.00 | ||
| 20260508045005 | 81 | 0 | 0.0 | 2.0 | 0.00 | 0.00 | 0.00 | ||
| 20260508044529 | 82 | 0 | 0.0 | 2.0 | 0.00 | 0.00 | 0.00 | ||
| 20260508044015 | 82 | 0 | 0.0 | 2.0 | 0.00 | 0.00 | 0.00 | ||
| 20260508043514 | 82 | 0 | 0.0 | 1.0 | 0.00 | 0.00 | 0.00 | ||
| 20260508043017 | 83 | 0 | 0.0 | 3.0 | 0.00 | 0.00 | 0.00 | ||
| 20260508042458 | 83 | 0 | 1.0 | 4.0 | 0.00 | 0.00 | 0.00 | ||
| 20260508042000 | 83 | 343 | 0.0 | 5.0 | 0.00 | 0.00 | 0.00 | ||
| 20260508041015 | 84 | 4 | 3.0 | 5.0 | 0.00 | 0.00 | 0.00 | ||
| 20260508040516 | 84 | 341 | 1.0 | 5.0 | 0.00 | 0.00 | 0.00 | ||
| 20260508035501 | 85 | 181 | 1.0 | 5.0 | 0.00 | 0.00 | 0.00 | ||
| 20260508034525 | 85 | 0 | 2.0 | 4.0 | 0.00 | 0.00 | 0.00 | ||
| 20260508033004 | 86 | 104 | 0.0 | 3.0 | 0.00 | 0.00 | 0.00 | ||
| 20260508032505 | 87 | 104 | 0.0 | 6.0 | 0.00 | 0.00 | 0.00 | ||
| 20260508032014 | 87 | 336 | 1.0 | 6.0 | 0.00 | 0.00 | 0.00 | ||
| 20260508031506 | 88 | 336 | 1.0 | 7.0 | 0.00 | 0.00 | 0.00 | ||
| 20260508031008 | 88 | 19 | 2.0 | 7.0 | 0.00 | 0.00 | 0.00 | ||
| 20260508030507 | 88 | 0 | 3.0 | 7.0 | 0.00 | 0.00 | 0.00 | ||
| 20260508030011 | 88 | 0 | 1.0 | 4.0 | 0.00 | 0.00 | 0.00 | ||
| 20260508025513 | 89 | 0 | 1.0 | 4.0 | 0.00 | 0.00 | 0.00 | ||
| 20260508025015 | 89 | 0 | 2.0 | 6.0 | 0.00 | 0.00 | 0.00 | ||
| 20260508024507 | 90 | 0 | 1.0 | 6.0 | 0.00 | 0.00 | 0.00 | ||
| 20260508024010 | 90 | 0 | 1.0 | 8.0 | 0.00 | 0.00 | 0.00 | ||
| 20260508023509 | 90 | 0 | 3.0 | 8.0 | 0.00 | 0.00 | 0.00 | ||
| 20260508023009 | 90 | 0 | 5.0 | 11.0 | 0.00 | 0.00 | 0.00 | ||
| 20260508022012 | 91 | 313 | 6.0 | 8.0 | 0.00 | 0.00 | 0.00 | ||
| 20260508021503 | 91 | 357 | 6.0 | 11.0 | 0.00 | 0.00 | 0.00 | ||
| 20260508021007 | 92 | 355 | 6.0 | 11.0 | 0.00 | 0.00 | 0.00 | ||
| 20260508020510 | 92 | 340 | 6.0 | 10.0 | 0.00 | 0.00 | 0.00 | ||
| 20260508015511 | 92 | 352 | 6.0 | 11.0 | 0.00 | 0.00 | 0.00 | ||
| 20260508015011 | 93 | 359 | 5.0 | 11.0 | 0.00 | 0.00 | 0.00 | ||
| 20260508014504 | 93 | 359 | 5.0 | 9.0 | 0.00 | 0.00 | 0.00 | ||
| 20260508014008 | 93 | 0 | 6.0 | 10.0 | 0.00 | 0.00 | 0.00 | ||
| 20260508013507 | 94 | 356 | 7.0 | 11.0 | 0.00 | 0.00 | 0.00 | ||
| 20260508013011 | 94 | 271 | 5.0 | 11.0 | 0.00 | 0.00 | 0.00 | ||
| 20260508012513 | 94 | 0 | 6.0 | 13.0 | 0.00 | 0.00 | 0.00 | ||
| 20260508012017 | 94 | 359 | 6.0 | 13.0 | 0.00 | 0.00 | 0.00 | ||
| 20260508011507 | 94 | 359 | 6.0 | 11.0 | 0.00 | 0.00 | 0.00 | ||
| 20260508011007 | 94 | 318 | 6.0 | 11.0 | 0.00 | 0.00 | 0.00 | ||
| 20260508010510 | 94 | 347 | 5.0 | 12.0 | 0.00 | 0.00 | 0.00 | ||
| 20260508005459 | 94 | 336 | 6.0 | 9.0 | 0.00 | 0.00 | 0.00 | ||
| 20260508004516 | 94 | 0 | 4.0 | 13.0 | 0.00 | 0.00 | 0.00 | ||
| 20260508004017 | 94 | 356 | 7.0 | 13.0 | 0.00 | 0.00 | 0.00 | ||
| 20260508003458 | 94 | 0 | 4.0 | 12.0 | 0.00 | 0.00 | 0.00 | ||
| 20260508002959 | 94 | 357 | 5.0 | 9.0 | 0.00 | 0.00 | 0.00 | ||
| 20260508002503 | 94 | 0 | 3.0 | 5.0 | 0.00 | 0.00 | 0.00 | ||
| 20260508000509 | 94 | 263 | 3.0 | 7.0 | 0.00 | 0.00 | 0.00 | ||
| 20260508000004 | 94 | 0 | 1.0 | 7.0 | 0.00 | 0.00 | 0.00 | ||
| 20260507235507 | 94 | 0 | 5.0 | 9.0 | 0.00 | 0.00 | 0.00 | ||
| 20260507234503 | 94 | 270 | 2.0 | 6.0 | 0.00 | 0.00 | 0.00 | ||
| 20260507234002 | 94 | 0 | 1.0 | 7.0 | 0.00 | 0.00 | 0.00 | ||
| 20260507233502 | 94 | 321 | 2.0 | 7.0 | 0.00 | 0.00 | 0.00 | ||
| 20260507233006 | 94 | 0 | 0.0 | 9.0 | 0.00 | 0.00 | 0.00 | ||
| 20260507231504 | 94 | 359 | 2.0 | 8.0 | 0.00 | 0.00 | 0.00 | ||
| 20260507231004 | 94 | 359 | 4.0 | 7.0 | 0.00 | 0.00 | 0.00 | ||
| 20260507230503 | 94 | 353 | 4.0 | 7.0 | 0.00 | 0.00 | 0.00 | ||
| 20260507230006 | 94 | 0 | 3.0 | 7.0 | 0.00 | 0.00 | 0.00 | ||
| 20260507225507 | 93 | 290 | 0.0 | 4.0 | 0.00 | 0.00 | 0.00 | ||
| 20260507225007 | 93 | 282 | 1.0 | 5.0 | 0.00 | 0.00 | 0.00 | ||
| 20260507224527 | 93 | 0 | 3.0 | 7.0 | 0.00 | 0.00 | 0.00 | ||
| 20260507224019 | 93 | 206 | 2.0 | 7.0 | 0.00 | 0.00 | 0.00 | ||
| 20260507223459 | 93 | 359 | 1.0 | 8.0 | 0.00 | 0.00 | 0.00 | ||
| 20260507223020 | 93 | 358 | 3.0 | 8.0 | 0.00 | 0.00 | 0.00 | ||
| 20260507222519 | 93 | 0 | 3.0 | 9.0 | 0.00 | 0.00 | 0.00 | ||
| 20260507222018 | 93 | 0 | 4.0 | 9.0 | 0.00 | 0.00 | 0.00 | ||
| 20260507221511 | 93 | 358 | 7.0 | 9.0 | 0.00 | 0.00 | 0.00 | ||
| 20260507220517 | 93 | 295 | 5.0 | 9.0 | 0.00 | 0.00 | 0.00 | ||
| 20260507215959 | 93 | 153 | 3.0 | 8.0 | 0.00 | 0.00 | 0.00 | ||
| 20260507215501 | 93 | 320 | 3.0 | 7.0 | 0.00 | 0.00 | 0.00 | ||
| 20260507215000 | 93 | 321 | 2.0 | 6.0 | 0.00 | 0.00 | 0.00 | ||
| 20260507214522 | 93 | 0 | 2.0 | 6.0 | 0.00 | 0.00 | 0.00 | ||
| 20260507213516 | 93 | 115 | 1.0 | 9.0 | 0.00 | 0.00 | 0.00 | ||
| 20260507213019 | 92 | 7 | 3.0 | 7.0 | 0.00 | 0.00 | 0.00 | ||
| 20260507212458 | 92 | 0 | 2.0 | 6.0 | 0.00 | 0.00 | 0.00 | ||
| 20260507212021 | 92 | 88 | 2.0 | 8.0 | 0.00 | 0.00 | 0.00 | ||
| 20260507211511 | 92 | 182 | 3.0 | 8.0 | 0.00 | 0.00 | 0.00 | ||
| 20260507211009 | 92 | 0 | 1.0 | 8.0 | 0.00 | 0.00 | 0.00 | ||
| 20260507210512 | 91 | 0 | 3.0 | 8.0 | 0.00 | 0.00 | 0.00 | ||
| 20260507210012 | 91 | 0 | 3.0 | 6.0 | 0.00 | 0.00 | 0.00 | ||
| 20260507205514 | 91 | 348 | 3.0 | 6.0 | 0.00 | 0.00 | 0.00 | ||
| 20260507205017 | 91 | 285 | 3.0 | 6.0 | 0.00 | 0.00 | 0.00 | ||
| 20260507204511 | 91 | 0 | 3.0 | 6.0 | 0.00 | 0.00 | 0.00 | ||
| 20260507204008 | 91 | 0 | 3.0 | 4.0 | 0.00 | 0.00 | 0.00 | ||
| 20260507203509 | 91 | 0 | 0.0 | 5.0 | 0.00 | 0.00 | 0.00 | ||
| 20260507203012 | 91 | 0 | 1.0 | 5.0 | 0.00 | 0.00 | 0.00 | ||
| 20260507202017 | 91 | 354 | 4.0 | 10.0 | 0.00 | 0.00 | 0.00 | ||
| 20260507201508 | 91 | 0 | 1.0 | 8.0 | 0.00 | 0.00 | 0.00 | ||
| 20260507200511 | 90 | 351 | 2.0 | 10.0 | 0.00 | 0.00 | 0.00 | ||
| 20260507195000 | 90 | 359 | 4.0 | 10.0 | 0.00 | 0.00 | 0.00 | ||
| 20260507194522 | 90 | 354 | 3.0 | 10.0 | 0.00 | 0.00 | 0.00 | ||
| 20260507194014 | 90 | 0 | 5.0 | 9.0 | 0.00 | 0.00 | 0.00 | ||
| 20260507193514 | 89 | 0 | 3.0 | 6.0 | 0.00 | 0.00 | 0.00 | ||
| 20260507193019 | 89 | 0 | 2.0 | 5.0 | 0.00 | 0.00 | 0.00 | ||
| 20260507192518 | 89 | 0 | 1.0 | 6.0 | 0.00 | 0.00 | 0.00 | ||
| 20260507191015 | 89 | 46 | 1.0 | 5.0 | 0.00 | 0.00 | 0.00 | ||
| 20260507185505 | 88 | 358 | 4.0 | 7.0 | 0.00 | 0.00 | 0.00 | ||
| 20260507185026 | 88 | 353 | 4.0 | 7.0 | 0.00 | 0.00 | 0.00 | ||
| 20260507184519 | 88 | 0 | 1.0 | 7.0 | 0.00 | 0.00 | 0.00 | ||
| 20260507184018 | 88 | 0 | 2.0 | 7.0 | 0.00 | 0.00 | 0.00 | ||
| 20260507183001 | 87 | 0 | 2.0 | 8.0 | 0.00 | 0.00 | 0.00 | ||
| 20260507182005 | 87 | 11 | 3.0 | 8.0 | 0.00 | 0.00 | 0.00 | ||
| 20260507181528 | 86 | 0 | 4.0 | 8.0 | 0.00 | 0.00 | 0.00 | ||
| 20260507181018 | 86 | 40 | 2.0 | 5.0 | 0.00 | 0.00 | 0.00 | ||
| 20260507180520 | 85 | 339 | 2.0 | 5.0 | 0.00 | 0.00 | 0.00 | ||
| 20260507180003 | 85 | 0 | 0.0 | 7.0 | 0.00 | 0.00 | 0.00 | ||
| 20260507175505 | 85 | 353 | 5.0 | 7.0 | 0.00 | 0.00 | 0.00 | ||
| 20260507175024 | 84 | 222 | 0.0 | 7.0 | 0.00 | 0.00 | 0.00 | ||
| 20260507174517 | 84 | 241 | 2.0 | 10.0 | 0.00 | 0.00 | 0.00 | ||
| 20260507174000 | 84 | 350 | 5.0 | 10.0 | 0.00 | 0.00 | 0.00 | ||
| 20260507173005 | 83 | 0 | 1.0 | 7.0 | 0.00 | 0.00 | 0.00 | ||
| 20260507172011 | 82 | 316 | 4.0 | 8.0 | 0.00 | 0.00 | 0.00 | ||
| 20260507171005 | 82 | 0 | 4.0 | 6.0 | 0.00 | 0.00 | 0.00 | ||
| 20260507170505 | 81 | 6 | 4.0 | 6.0 | 0.00 | 0.00 | 0.00 | ||
| 20260507170007 | 81 | 346 | 2.0 | 5.0 | 0.00 | 0.00 | 0.00 | ||
| 20260507165508 | 81 | 341 | 2.0 | 8.0 | 0.00 | 0.00 | 0.00 | ||
| 20260507165011 | 80 | 42 | 3.0 | 8.0 | 0.00 | 0.00 | 0.00 | ||
| 20260507164502 | 80 | 358 | 2.0 | 7.0 | 0.00 | 0.00 | 0.00 | ||
| 20260507164006 | 80 | 357 | 4.0 | 7.0 | 0.00 | 0.00 | 0.00 | ||
| 20260507163507 | 79 | 341 | 5.0 | 7.0 | 0.00 | 0.00 | 0.00 | ||
| 20260507163009 | 79 | 358 | 1.0 | 6.0 | 0.00 | 0.00 | 0.00 | ||
| 20260507162508 | 78 | 205 | 2.0 | 6.0 | 0.00 | 0.00 | 0.00 | ||
| 20260507162012 | 78 | 0 | 3.0 | 6.0 | 0.00 | 0.00 | 0.00 | ||
| 20260507161007 | 77 | 33 | 1.0 | 6.0 | 0.00 | 0.00 | 0.00 | ||
| 20260507160507 | 76 | 316 | 3.0 | 5.0 | 0.00 | 0.00 | 0.00 | ||
| 20260507160009 | 76 | 0 | 1.0 | 5.0 | 0.00 | 0.00 | 0.00 | ||
| 20260507155511 | 76 | 359 | 4.0 | 5.0 | 0.00 | 0.00 | 0.00 | ||
| 20260507155011 | 75 | 359 | 1.0 | 4.0 | 0.00 | 0.00 | 0.00 | ||
| 20260507153509 | 73 | 0 | 1.0 | 2.0 | 0.00 | 0.00 | 0.00 | ||
| 20260507153011 | 73 | 359 | 0.0 | 2.0 | 0.00 | 0.00 | 0.00 | ||
| 20260507152511 | 72 | 284 | 0.0 | 3.0 | 0.00 | 0.00 | 0.00 | ||
| 20260507152016 | 72 | 0 | 0.0 | 3.0 | 0.00 | 0.00 | 0.00 | ||
| 20260507151508 | 71 | 330 | 0.0 | 1.0 | 0.00 | 0.00 | 0.00 | ||
| 20260507151007 | 71 | 0 | 0.0 | 2.0 | 0.00 | 0.00 | 0.00 | ||
| 20260507150506 | 70 | 0 | 0.0 | 2.0 | 0.00 | 0.00 | 0.00 | ||
| 20260507150007 | 70 | 0 | 0.0 | 3.0 | 0.00 | 0.00 | 0.00 | ||
| 20260507145509 | 69 | 0 | 1.0 | 3.0 | 0.00 | 0.00 | 0.00 | ||
| 20260507145012 | 69 | 0 | 1.0 | 2.0 | 0.00 | 0.00 | 0.00 | ||
| 20260507144503 | 69 | 0 | 0.0 | 3.0 | 0.00 | 0.00 | 0.00 | ||
| 20260507144005 | 68 | 347 | 1.0 | 3.0 | 0.00 | 0.00 | 0.00 | ||
| 20260507143506 | 68 | 0 | 0.0 | 1.0 | 0.00 | 0.00 | 0.00 | ||
| 20260507143005 | 68 | 0 | 0.0 | 2.0 | 0.00 | 0.00 | 0.00 | ||
| 20260507142505 | 67 | 0 | 1.0 | 3.0 | 0.00 | 0.00 | 0.00 | ||
| 20260507142008 | 67 | 0 | 0.0 | 3.0 | 0.00 | 0.00 | 0.00 | ||
| 20260507141007 | 66 | 355 | 0.0 | 3.0 | 0.00 | 0.00 | 0.00 | ||
| 20260507140507 | 66 | 0 | 0.0 | 3.0 | 0.00 | 0.00 | 0.00 | ||
| 20260507140007 | 66 | 0 | 1.0 | 4.0 | 0.00 | 0.00 | 0.00 | ||
| 20260507135508 | 66 | 306 | 1.0 | 5.0 | 0.00 | 0.00 | 0.00 | ||
| 20260507135012 | 66 | 0 | 0.0 | 5.0 | 0.00 | 0.00 | 0.00 | ||
| 20260507134505 | 65 | 177 | 0.0 | 3.0 | 0.00 | 0.00 | 0.00 | ||
| 20260507134003 | 65 | 236 | 1.0 | 4.0 | 0.00 | 0.00 | 0.00 | ||
| 20260507133504 | 65 | 0 | 0.0 | 4.0 | 0.00 | 0.00 | 0.00 | ||
| 20260507133003 | 65 | 34 | 1.0 | 4.0 | 0.00 | 0.00 | 0.00 | ||
| 20260507132501 | 64 | 2 | 0.0 | 2.0 | 0.00 | 0.00 | 0.00 | ||
| 20260507131523 | 64 | 168 | 0.0 | 1.0 | 0.00 | 0.00 | 0.00 | ||
| 20260507131014 | 64 | 259 | 0.0 | 2.0 | 0.00 | 0.00 | 0.00 | ||
| 20260507130515 | 64 | 166 | 0.0 | 2.0 | 0.00 | 0.00 | 0.00 | ||
| 20260507130014 | 64 | 274 | 0.0 | 2.0 | 0.00 | 0.00 | 0.00 | ||
| 20260507125519 | 65 | 173 | 0.0 | 2.0 | 0.00 | 0.00 | 0.00 | ||
| 20260507125020 | 65 | 126 | 0.0 | 2.0 | 0.00 | 0.00 | 0.00 | ||
| 20260507124012 | 65 | 79 | 0.0 | 1.0 | 0.00 | 0.00 | 0.00 | ||
| 20260507123512 | 65 | 223 | 0.0 | 2.0 | 0.00 | 0.00 | 0.00 | ||
| 20260507123012 | 65 | 80 | 0.0 | 4.0 | 0.00 | 0.00 | 0.00 | ||
| 20260507122014 | 65 | 157 | 2.0 | 4.0 | 0.00 | 0.00 | 0.00 | ||
| 20260507121503 | 65 | 0 | 0.0 | 3.0 | 0.00 | 0.00 | 0.00 | ||
| 20260507121002 | 65 | 359 | 0.0 | 2.0 | 0.00 | 0.00 | 0.00 | ||
| 20260507120502 | 65 | 0 | 0.0 | 1.0 | 0.00 | 0.00 | 0.00 | ||
| 20260507120002 | 65 | 291 | 0.0 | 2.0 | 0.00 | 0.00 | 0.00 | ||
| 20260507115502 | 65 | 320 | 0.0 | 2.0 | 0.00 | 0.00 | 0.00 | ||
| 20260507115003 | 65 | 318 | 0.0 | 1.0 | 0.00 | 0.00 | 0.00 | ||
| 20260507114016 | 66 | 246 | 0.0 | 2.0 | 0.00 | 0.00 | 0.00 | ||
| 20260507113500 | 66 | 311 | 0.0 | 2.0 | 0.00 | 0.00 | 0.00 | ||
| 20260507113001 | 66 | 0 | 0.0 | 2.0 | 0.00 | 0.00 | 0.00 | ||
| 20260507112016 | 66 | 0 | 0.0 | 1.0 | 0.00 | 0.00 | 0.00 | ||
| 20260507111500 | 66 | 0 | 0.0 | 2.0 | 0.00 | 0.00 | 0.00 | ||
| 20260507110514 | 66 | 306 | 1.0 | 2.0 | 0.00 | 0.00 | 0.00 | ||
| 20260507110014 | 66 | 0 | 1.0 | 2.0 | 0.00 | 0.00 | 0.00 | ||
| 20260507105515 | 66 | 0 | 0.0 | 2.0 | 0.00 | 0.00 | 0.00 | ||
| 20260507105007 | 66 | 235 | 0.0 | 2.0 | 0.00 | 0.00 | 0.00 | ||
| 20260507104509 | 67 | 255 | 0.0 | 2.0 | 0.00 | 0.00 | 0.00 | ||
| 20260507103511 | 67 | 242 | 0.0 | 2.0 | 0.00 | 0.00 | 0.00 | ||
| 20260507103012 | 68 | 0 | 0.0 | 2.0 | 0.00 | 0.00 | 0.00 |